| time (UTC) | temp F | wind direction | speed knots | gust knots | rain 1hr in | rain 24hr in | rain mn in | humidity % | barometer mb |
| 20260506164004 | 72 | 168 | 4.3 | 14.8 | 0.00 | 0.00 | 0.00 | 51 | 1004.0 |
| 20260506162003 | 74 | 183 | 3.5 | 8.7 | 0.00 | 0.00 | 0.00 | 49 | 1004.2 |
| 20260506160004 | 74 | 165 | 5.2 | 11.3 | 0.00 | 0.00 | 0.00 | 47 | 1004.4 |
| 20260506154003 | 75 | 173 | 4.3 | 10.4 | 0.00 | 0.00 | 0.00 | 45 | 1004.6 |
| 20260506152005 | 75 | 165 | 4.3 | 11.3 | 0.00 | 0.00 | 0.00 | 47 | 1005.0 |
| 20260506150005 | 74 | 170 | 4.3 | 8.7 | 0.00 | 0.00 | 0.00 | 49 | 1005.1 |
| 20260506144003 | 75 | 168 | 4.3 | 11.3 | 0.00 | 0.00 | 0.00 | 48 | 1005.4 |
| 20260506142005 | 75 | 165 | 4.3 | 15.6 | 0.00 | 0.00 | 0.00 | 49 | 1005.5 |
| 20260506140026 | 74 | 178 | 4.3 | 11.3 | 0.00 | 0.00 | 0.00 | 49 | 1005.9 |
| 20260506134005 | 75 | 181 | 5.2 | 11.3 | 0.00 | 0.00 | 0.00 | 49 | 1005.9 |
| 20260506132005 | 74 | 177 | 5.2 | 12.2 | 0.00 | 0.00 | 0.00 | 52 | 1006.1 |
| 20260506130025 | 74 | 169 | 4.3 | 12.2 | 0.00 | 0.00 | 0.00 | 50 | 1006.4 |
| 20260506124004 | 73 | 175 | 4.3 | 11.3 | 0.00 | 0.00 | 0.00 | 52 | 1006.5 |
| 20260506122003 | 73 | 162 | 4.3 | 13.0 | 0.00 | 0.00 | 0.00 | 49 | 1006.8 |
| 20260506120004 | 73 | 195 | 3.5 | 8.7 | 0.00 | 0.00 | 0.00 | 50 | 1006.8 |
| 20260506114003 | 73 | 177 | 2.6 | 8.7 | 0.00 | 0.00 | 0.00 | 48 | 1007.0 |
| 20260506112003 | 74 | 194 | 3.5 | 7.8 | 0.00 | 0.00 | 0.00 | 47 | 1007.2 |
| 20260506110004 | 73 | 185 | 2.6 | 8.7 | 0.00 | 0.00 | 0.00 | 52 | 1007.4 |
| 20260506104005 | 74 | 190 | 3.5 | 7.8 | 0.00 | 0.00 | 0.00 | 48 | 1007.6 |
| 20260506102025 | 73 | 202 | 2.6 | 8.7 | 0.00 | 0.00 | 0.00 | 52 | 1007.6 |
| 20260506100003 | 72 | 179 | 3.5 | 9.6 | 0.00 | 0.00 | 0.00 | 52 | 1007.7 |
| 20260506094003 | 72 | 183 | 2.6 | 8.7 | 0.00 | 0.00 | 0.00 | 53 | 1007.7 |
| 20260506092003 | 71 | 227 | 1.7 | 6.1 | 0.00 | 0.00 | 0.00 | 55 | 1007.8 |
| 20260506090003 | 70 | 196 | 2.6 | 7.8 | 0.00 | 0.00 | 0.00 | 57 | 1007.9 |
| 20260506084024 | 69 | 220 | 1.7 | 5.2 | 0.00 | 0.00 | 0.00 | 60 | 1007.8 |
| 20260506082003 | 68 | 191 | 2.6 | 7.8 | 0.00 | 0.00 | 0.00 | 61 | 1008.0 |
| 20260506072003 | 66 | 191 | 1.7 | 7.0 | 0.00 | 0.00 | 0.00 | 70 | 1008.0 |
| 20260506062005 | 61 | 250 | 0.9 | 4.3 | 0.00 | 0.00 | 0.00 | 79 | 1008.1 |
| 20260506044004 | 50 | 0 | 0.0 | 0.0 | 0.00 | 0.00 | 0.00 | 92 | 1007.4 |
| 20260506042003 | 49 | 0 | 0.0 | 0.0 | 0.00 | 0.00 | 0.00 | 91 | 1007.3 |
| 20260506040024 | 49 | 0 | 0.0 | 0.0 | 0.00 | 0.00 | 0.00 | 89 | 1007.1 |
| 20260506034024 | 49 | 0 | 0.0 | 0.0 | 0.00 | 0.00 | 0.00 | 89 | 1007.0 |
| 20260506032005 | 50 | 0 | 0.0 | 0.0 | 0.00 | 0.00 | 0.00 | 87 | 1006.9 |
| 20260506030003 | 51 | 0 | 0.0 | 0.0 | 0.00 | 0.00 | 0.00 | 86 | 1006.8 |
| 20260506024024 | 51 | 143 | 0.0 | 0.9 | 0.00 | 0.00 | 0.00 | 85 | 1006.6 |
| 20260506022003 | 52 | 0 | 0.0 | 0.0 | 0.00 | 0.00 | 0.00 | 87 | 1006.7 |
| 20260506020005 | 52 | 0 | 0.0 | 0.0 | 0.00 | 0.00 | 0.00 | 85 | 1006.6 |
| 20260506014024 | 53 | 143 | 0.0 | 0.9 | 0.00 | 0.00 | 0.00 | 84 | 1006.5 |
| 20260506012026 | 53 | 143 | 0.0 | 1.7 | 0.00 | 0.00 | 0.00 | 83 | 1006.2 |
| 20260506010004 | 54 | 143 | 0.0 | 0.9 | 0.00 | 0.00 | 0.00 | 81 | 1006.0 |
| 20260506004003 | 55 | 143 | 0.0 | 0.9 | 0.00 | 0.00 | 0.00 | 80 | 1006.0 |
| 20260506002004 | 56 | 0 | 0.0 | 0.0 | 0.00 | 0.00 | 0.00 | 78 | 1005.8 |
| 20260506000005 | 57 | 0 | 0.0 | 0.0 | 0.00 | 0.00 | 0.00 | 76 | 1005.8 |
| 20260505234003 | 57 | 0 | 0.0 | 0.0 | 0.00 | 0.00 | 0.00 | 75 | 1005.8 |
| 20260505232003 | 58 | 0 | 0.0 | 0.0 | 0.00 | 0.00 | 0.00 | 73 | 1005.6 |
| 20260505230004 | 59 | 143 | 0.0 | 0.9 | 0.00 | 0.00 | 0.00 | 70 | 1005.6 |
| 20260505224003 | 60 | 0 | 0.0 | 0.0 | 0.00 | 0.00 | 0.00 | 70 | 1005.5 |
| 20260505222025 | 60 | 143 | 0.0 | 2.6 | 0.00 | 0.00 | 0.00 | 69 | 1005.5 |
| 20260505220004 | 59 | 142 | 0.0 | 2.6 | 0.00 | 0.00 | 0.00 | 70 | 1005.4 |
| 20260505214003 | 58 | 0 | 0.0 | 0.0 | 0.00 | 0.00 | 0.00 | 72 | 1005.3 |
| 20260505212025 | 58 | 0 | 0.0 | 0.0 | 0.00 | 0.00 | 0.00 | 71 | 1005.5 |
| 20260505210024 | 60 | 141 | 0.0 | 2.6 | 0.00 | 0.00 | 0.00 | 66 | 1005.5 |
| 20260505204003 | 61 | 140 | 0.0 | 1.7 | 0.00 | 0.00 | 0.00 | 62 | 1005.5 |
| 20260505202003 | 62 | 140 | 0.0 | 3.5 | 0.00 | 0.00 | 0.00 | 60 | 1005.5 |
| 20260505200024 | 63 | 139 | 0.9 | 6.1 | 0.00 | 0.00 | 0.00 | 58 | 1005.6 |
| 20260505194024 | 64 | 138 | 0.9 | 4.3 | 0.00 | 0.00 | 0.00 | 56 | 1005.3 |
| 20260505192024 | 64 | 153 | 0.9 | 6.1 | 0.00 | 0.00 | 0.00 | 56 | 1005.3 |
| 20260505190004 | 65 | 154 | 1.7 | 7.8 | 0.00 | 0.00 | 0.00 | 55 | 1005.4 |
| 20260505184024 | 66 | 150 | 2.6 | 8.7 | 0.00 | 0.00 | 0.00 | 54 | 1005.6 |
| 20260505182003 | 67 | 152 | 1.7 | 8.7 | 0.00 | 0.00 | 0.00 | 52 | 1005.5 |
| 20260505180004 | 68 | 158 | 1.7 | 6.1 | 0.00 | 0.00 | 0.00 | 51 | 1005.4 |
| 20260505174026 | 69 | 166 | 2.6 | 9.6 | 0.00 | 0.00 | 0.00 | 48 | 1005.3 |
| 20260505172005 | 71 | 162 | 3.5 | 9.6 | 0.00 | 0.00 | 0.00 | 46 | 1005.2 |
| 20260505170003 | 73 | 164 | 5.2 | 13.0 | 0.00 | 0.00 | 0.00 | 44 | 1005.0 |